TEVEL2-2

Last updated on Mon Nov 03 2025 00:03:22 GMT+0000 (Coordinated Universal Time)

1 63219U 25052K 25306.23894251 .00016728 00000+0 67895-3 0 9996 2 63219 97.4103 198.2319 0002501 160.8603 199.2729 15.24670134 35406
UTC large
Height (km)
Speed (km/s)
/
Latitude / Longitude
Inclination (degrees)
Orbital Period (minutes)
Azimuth
Elevation
Range (km)
Doppler Factor

Next 0 passes for location: London (51.5072 / 0.1276)

Sorry there are no passes over London.